Time,TemperatureF,DewpointF,PressureIn,WindDirection,WindDirectionDegrees,WindSpeedMPH,WindSpeedGustMPH,Humidity,HourlyPrecipIn,Conditions,Clouds,dailyrainin,SoftwareType,DateUTC
2013-08-23 00:00:00,71.6,70.4,30.03,ENE,70,0.0,0.0,96,0.00,,---,0.00,VWS V14.01,2013-08-23 04:00:00,
2013-08-23 00:01:00,71.5,70.3,30.03,ENE,70,0.0,0.0,96,0.00,,---,0.00,VWS V14.01,2013-08-23 04:01:00,
2013-08-23 00:06:00,71.5,70.3,30.03,ENE,69,0.0,0.0,96,0.00,,---,0.00,VWS V14.01,2013-08-23 04:06:00,
2013-08-23 00:10:00,71.4,70.2,30.03,ENE,70,0.0,0.0,96,0.00,,---,0.00,VWS V14.01,2013-08-23 04:10:00,
2013-08-23 00:11:00,71.4,70.2,30.03,ENE,70,0.0,0.0,96,0.00,,---,0.00,VWS V14.01,2013-08-23 04:11:00,
2013-08-23 00:16:00,71.3,70.1,30.03,ENE,69,0.0,0.0,96,0.00,,---,0.00,VWS V14.01,2013-08-23 04:16:00,
2013-08-23 00:20:00,71.2,70.0,30.02,ENE,70,0.0,0.0,96,0.00,,---,0.00,VWS V14.01,2013-08-23 04:20:00,
2013-08-23 00:21:00,71.2,70.0,30.03,ENE,70,0.0,0.0,96,0.00,,---,0.00,VWS V14.01,2013-08-23 04:21:00,
2013-08-23 00:26:00,71.1,69.9,30.02,ENE,70,0.0,0.0,96,0.00,,---,0.00,VWS V14.01,2013-08-23 04:26:00,
2013-08-23 00:30:00,71.1,69.9,30.02,ENE,69,0.0,0.0,96,0.00,,---,0.00,VWS V14.01,2013-08-23 04:30:00,
2013-08-23 00:31:00,71.1,70.2,30.02,ENE,70,0.0,0.0,97,0.00,,---,0.00,VWS V14.01,2013-08-23 04:31:00,
2013-08-23 00:36:00,71.5,70.6,30.02,ENE,70,0.0,0.0,97,0.00,,---,0.00,VWS V14.01,2013-08-23 04:36:00,
2013-08-23 00:40:00,71.6,70.7,30.02,ENE,69,0.0,0.0,97,0.00,,---,0.00,VWS V14.01,2013-08-23 04:40:00,
2013-08-23 00:41:00,71.7,70.8,30.02,ENE,70,0.0,0.0,97,0.00,,---,0.00,VWS V14.01,2013-08-23 04:41:00,
2013-08-23 00:46:00,71.6,70.4,30.02,ENE,70,0.0,0.0,96,0.00,,---,0.00,VWS V14.01,2013-08-23 04:46:00,
2013-08-23 00:50:00,71.5,70.3,30.02,ENE,70,0.0,0.0,96,0.00,,---,0.00,VWS V14.01,2013-08-23 04:50:00,
2013-08-23 00:51:00,71.5,70.3,30.02,ENE,70,0.0,0.0,96,0.00,,---,0.00,VWS V14.01,2013-08-23 04:51:00,
2013-08-23 00:56:00,71.4,70.2,30.02,ENE,70,0.0,0.0,96,0.00,,---,0.00,VWS V14.01,2013-08-23 04:56:00,
2013-08-23 01:00:00,71.3,70.1,30.02,ENE,69,0.0,0.0,96,0.00,,---,0.00,VWS V14.01,2013-08-23 05:00:00,
2013-08-23 01:01:00,71.3,70.1,30.02,ENE,70,0.0,0.0,96,0.00,,---,0.00,VWS V14.01,2013-08-23 05:01:00,
2013-08-23 01:06:00,71.2,70.0,30.01,ENE,70,0.0,0.0,96,0.00,,---,0.00,VWS V14.01,2013-08-23 05:06:00,
2013-08-23 01:10:00,71.1,69.9,30.01,ENE,70,0.0,0.0,96,0.00,,---,0.00,VWS V14.01,2013-08-23 05:10:00,
2013-08-23 01:11:00,71.1,69.9,30.01,ENE,70,0.0,0.0,96,0.00,,---,0.00,VWS V14.01,2013-08-23 05:11:00,
2013-08-23 01:16:00,71.1,70.2,30.01,ENE,70,0.0,0.0,97,0.00,,---,0.00,VWS V14.01,2013-08-23 05:16:00,
2013-08-23 01:20:00,71.0,70.1,30.01,ENE,70,0.0,0.0,97,0.00,,---,0.00,VWS V14.01,2013-08-23 05:20:00,
2013-08-23 01:21:00,71.0,69.8,30.01,ENE,70,0.0,0.0,96,0.00,,---,0.00,VWS V14.01,2013-08-23 05:21:00,
2013-08-23 01:26:00,70.9,69.7,30.01,ENE,69,0.0,0.0,96,0.00,,---,0.00,VWS V14.01,2013-08-23 05:26:00,
2013-08-23 01:30:00,70.8,69.6,30.01,ENE,70,0.0,0.0,96,0.00,,---,0.00,VWS V14.01,2013-08-23 05:30:00,
2013-08-23 01:31:00,70.8,69.6,30.01,ENE,70,0.0,0.0,96,0.00,,---,0.00,VWS V14.01,2013-08-23 05:31:00,
2013-08-23 01:36:00,70.7,69.5,30.01,ENE,70,0.0,0.0,96,0.00,,---,0.00,VWS V14.01,2013-08-23 05:36:00,
2013-08-23 01:40:00,70.6,69.4,30.01,ENE,70,0.0,0.0,96,0.00,,---,0.00,VWS V14.01,2013-08-23 05:40:00,
2013-08-23 01:41:00,70.6,69.4,30.01,ENE,70,0.0,0.0,96,0.00,,---,0.00,VWS V14.01,2013-08-23 05:41:00,
2013-08-23 01:46:00,70.5,69.6,30.01,ENE,69,0.0,0.0,97,0.00,,---,0.00,VWS V14.01,2013-08-23 05:46:00,
2013-08-23 01:50:00,70.5,69.6,30.01,ENE,69,0.0,0.0,97,0.00,,---,0.00,VWS V14.01,2013-08-23 05:50:00,
2013-08-23 01:51:00,70.5,69.6,30.01,ENE,70,0.0,0.0,97,0.00,,---,0.00,VWS V14.01,2013-08-23 05:51:00,
2013-08-23 01:56:00,70.4,69.5,30.01,ENE,69,0.0,0.0,97,0.00,,---,0.00,VWS V14.01,2013-08-23 05:56:00,
2013-08-23 02:00:00,70.4,69.5,30.00,ENE,69,0.0,0.0,97,0.00,,---,0.00,VWS V14.01,2013-08-23 06:00:00,
2013-08-23 02:01:00,70.4,69.5,30.00,ENE,70,0.0,0.0,97,0.00,,---,0.00,VWS V14.01,2013-08-23 06:01:00,
2013-08-23 02:06:00,70.3,69.4,30.01,ENE,70,0.0,0.0,97,0.00,,---,0.00,VWS V14.01,2013-08-23 06:06:00,
2013-08-23 02:10:00,70.4,69.5,30.00,ENE,69,0.0,0.0,97,0.00,,---,0.00,VWS V14.01,2013-08-23 06:10:00,
2013-08-23 02:11:00,70.3,69.4,30.01,ENE,70,0.0,0.0,97,0.00,,---,0.00,VWS V14.01,2013-08-23 06:11:00,
2013-08-23 02:16:00,70.2,69.3,30.01,ENE,70,0.0,0.0,97,0.00,,---,0.00,VWS V14.01,2013-08-23 06:16:00,
2013-08-23 02:20:00,70.1,69.2,30.00,ENE,69,0.0,0.0,97,0.00,,---,0.00,VWS V14.01,2013-08-23 06:20:00,
2013-08-23 02:21:00,70.1,69.2,30.00,ENE,70,0.0,0.0,97,0.00,,---,0.00,VWS V14.01,2013-08-23 06:21:00,
2013-08-23 02:26:00,70.0,69.1,30.00,ENE,70,0.0,0.0,97,0.00,,---,0.00,VWS V14.01,2013-08-23 06:26:00,
2013-08-23 02:30:00,70.0,69.1,30.00,ENE,70,0.0,0.0,97,0.00,,---,0.00,VWS V14.01,2013-08-23 06:30:00,
2013-08-23 02:31:00,69.9,69.0,30.00,ENE,70,0.0,0.0,97,0.00,,---,0.00,VWS V14.01,2013-08-23 06:31:00,
2013-08-23 02:36:00,69.9,69.0,30.00,ENE,70,0.0,0.0,97,0.00,,---,0.00,VWS V14.01,2013-08-23 06:36:00,
2013-08-23 02:40:00,70.0,69.1,30.00,ENE,70,0.0,0.0,97,0.00,,---,0.00,VWS V14.01,2013-08-23 06:40:00,
2013-08-23 02:41:00,70.1,69.2,30.00,ENE,70,0.0,0.0,97,0.00,,---,0.00,VWS V14.01,2013-08-23 06:41:00,
2013-08-23 02:46:00,70.3,69.4,30.00,ENE,69,0.0,0.0,97,0.00,,---,0.00,VWS V14.01,2013-08-23 06:46:00,
2013-08-23 02:50:00,70.3,69.4,30.00,ENE,70,0.0,0.0,97,0.00,,---,0.00,VWS V14.01,2013-08-23 06:50:00,
2013-08-23 02:51:00,70.2,69.3,30.00,ENE,70,0.0,0.0,97,0.00,,---,0.00,VWS V14.01,2013-08-23 06:51:00,
2013-08-23 02:56:00,70.1,68.9,30.00,ENE,70,0.0,0.0,96,0.00,,---,0.00,VWS V14.01,2013-08-23 06:56:00,
2013-08-23 03:00:00,69.9,68.7,30.00,ENE,70,0.0,0.0,96,0.00,,---,0.00,VWS V14.01,2013-08-23 07:00:00,
2013-08-23 03:01:00,69.9,68.7,30.00,ENE,70,0.0,0.0,96,0.00,,---,0.00,VWS V14.01,2013-08-23 07:01:00,
2013-08-23 03:06:00,69.8,68.9,30.00,ENE,70,0.0,0.0,97,0.00,,---,0.00,VWS V14.01,2013-08-23 07:06:00,
2013-08-23 03:10:00,69.7,68.8,30.00,ENE,69,0.0,0.0,97,0.00,,---,0.00,VWS V14.01,2013-08-23 07:10:00,
2013-08-23 03:11:00,69.7,68.8,30.00,ENE,70,0.0,0.0,97,0.00,,---,0.00,VWS V14.01,2013-08-23 07:11:00,
2013-08-23 03:16:00,69.6,68.7,30.00,ENE,69,0.0,0.0,97,0.00,,---,0.00,VWS V14.01,2013-08-23 07:16:00,
2013-08-23 03:20:00,69.6,68.7,30.00,ENE,70,0.0,0.0,97,0.00,,---,0.00,VWS V14.01,2013-08-23 07:20:00,
2013-08-23 03:21:00,69.6,68.7,30.00,ENE,70,0.0,0.0,97,0.00,,---,0.00,VWS V14.01,2013-08-23 07:21:00,
2013-08-23 03:26:00,69.6,68.7,30.00,ENE,69,0.0,0.0,97,0.00,,---,0.00,VWS V14.01,2013-08-23 07:26:00,
2013-08-23 03:30:00,69.6,68.7,30.00,ENE,70,0.0,0.0,97,0.00,,---,0.00,VWS V14.01,2013-08-23 07:30:00,
2013-08-23 03:31:00,69.6,68.7,30.00,ENE,70,0.0,0.0,97,0.00,,---,0.00,VWS V14.01,2013-08-23 07:31:00,
2013-08-23 03:36:00,69.6,68.7,30.00,ENE,70,0.0,0.0,97,0.00,,---,0.00,VWS V14.01,2013-08-23 07:36:00,
2013-08-23 03:40:00,69.6,68.7,29.99,ENE,70,0.0,0.0,97,0.00,,---,0.00,VWS V14.01,2013-08-23 07:40:00,
2013-08-23 03:41:00,69.6,68.7,29.99,ENE,70,0.0,0.0,97,0.00,,---,0.00,VWS V14.01,2013-08-23 07:41:00,
2013-08-23 03:46:00,69.7,68.8,29.99,ENE,69,0.0,0.0,97,0.00,,---,0.00,VWS V14.01,2013-08-23 07:46:00,
2013-08-23 03:50:00,69.7,68.8,29.99,ENE,70,0.0,0.0,97,0.00,,---,0.00,VWS V14.01,2013-08-23 07:50:00,
2013-08-23 03:51:00,69.7,68.8,29.99,ENE,70,0.0,0.0,97,0.00,,---,0.00,VWS V14.01,2013-08-23 07:51:00,
2013-08-23 03:56:00,69.7,68.8,29.99,ENE,69,0.0,0.0,97,0.00,,---,0.00,VWS V14.01,2013-08-23 07:56:00,
2013-08-23 04:00:00,69.6,68.7,29.99,ENE,70,0.0,0.0,97,0.00,,---,0.00,VWS V14.01,2013-08-23 08:00:00,
2013-08-23 04:01:00,69.6,68.7,29.99,ENE,70,0.0,0.0,97,0.00,,---,0.00,VWS V14.01,2013-08-23 08:01:00,
2013-08-23 04:06:00,69.6,68.7,29.99,ENE,70,0.0,0.0,97,0.00,,---,0.00,VWS V14.01,2013-08-23 08:06:00,
2013-08-23 04:10:00,69.5,68.6,29.99,ENE,70,0.0,0.0,97,0.00,,---,0.00,VWS V14.01,2013-08-23 08:10:00,
2013-08-23 04:11:00,69.5,68.6,29.99,ENE,70,0.0,0.0,97,0.00,,---,0.00,VWS V14.01,2013-08-23 08:11:00,
2013-08-23 04:16:00,69.4,68.5,29.99,ENE,69,0.0,0.0,97,0.00,,---,0.00,VWS V14.01,2013-08-23 08:16:00,
2013-08-23 04:20:00,69.3,68.4,29.99,ENE,70,0.0,0.0,97,0.00,,---,0.00,VWS V14.01,2013-08-23 08:20:00,
2013-08-23 04:21:00,69.3,68.4,29.99,ENE,69,0.0,0.0,97,0.00,,---,0.00,VWS V14.01,2013-08-23 08:21:00,
2013-08-23 04:26:00,69.2,68.3,29.99,ENE,70,0.0,0.0,97,0.00,,---,0.00,VWS V14.01,2013-08-23 08:26:00,
2013-08-23 04:30:00,69.1,68.2,29.98,ENE,69,0.0,0.0,97,0.00,,---,0.00,VWS V14.01,2013-08-23 08:30:00,
2013-08-23 04:31:00,69.1,68.2,29.99,ENE,70,0.0,0.0,97,0.00,,---,0.00,VWS V14.01,2013-08-23 08:31:00,
2013-08-23 04:36:00,69.1,68.2,29.98,ENE,70,0.0,0.0,97,0.00,,---,0.00,VWS V14.01,2013-08-23 08:36:00,
2013-08-23 04:40:00,69.0,68.1,29.98,ENE,70,0.0,0.0,97,0.00,,---,0.00,VWS V14.01,2013-08-23 08:40:00,
2013-08-23 04:41:00,69.0,68.1,29.99,ENE,70,0.0,0.0,97,0.00,,---,0.00,VWS V14.01,2013-08-23 08:41:00,
2013-08-23 04:46:00,69.0,68.1,29.98,ENE,70,0.0,0.0,97,0.00,,---,0.00,VWS V14.01,2013-08-23 08:46:00,
2013-08-23 04:50:00,68.9,68.0,29.98,ENE,70,0.0,0.0,97,0.00,,---,0.00,VWS V14.01,2013-08-23 08:50:00,
2013-08-23 04:51:00,68.9,68.0,29.98,ENE,70,0.0,0.0,97,0.00,,---,0.00,VWS V14.01,2013-08-23 08:51:00,
2013-08-23 04:56:00,68.8,67.9,29.98,ENE,69,0.0,0.0,97,0.00,,---,0.00,VWS V14.01,2013-08-23 08:56:00,
2013-08-23 05:00:00,68.8,67.9,29.98,ENE,70,0.0,0.0,97,0.00,,---,0.00,VWS V14.01,2013-08-23 09:00:00,
2013-08-23 05:01:00,68.8,67.9,29.98,ENE,70,0.0,0.0,97,0.00,,---,0.00,VWS V14.01,2013-08-23 09:01:00,
2013-08-23 05:06:00,68.7,67.8,29.98,ENE,69,0.0,0.0,97,0.00,,---,0.00,VWS V14.01,2013-08-23 09:06:00,
2013-08-23 05:10:00,68.7,68.1,29.98,ENE,70,0.0,0.0,98,0.00,,---,0.00,VWS V14.01,2013-08-23 09:10:00,
2013-08-23 05:11:00,68.7,68.1,29.98,ENE,70,0.0,0.0,98,0.00,,---,0.00,VWS V14.01,2013-08-23 09:11:00,
2013-08-23 05:16:00,68.7,68.1,29.98,ENE,70,0.0,0.0,98,0.00,,---,0.00,VWS V14.01,2013-08-23 09:16:00,
2013-08-23 05:20:00,68.7,68.1,29.98,ENE,70,0.0,0.0,98,0.00,,---,0.00,VWS V14.01,2013-08-23 09:20:00,
2013-08-23 05:21:00,68.7,68.1,29.98,ENE,69,0.0,0.0,98,0.00,,---,0.00,VWS V14.01,2013-08-23 09:21:00,
2013-08-23 05:26:00,68.7,68.1,29.98,ENE,70,0.0,0.0,98,0.00,,---,0.00,VWS V14.01,2013-08-23 09:26:00,
2013-08-23 05:30:00,68.7,68.1,29.98,ENE,69,0.0,0.0,98,0.00,,---,0.00,VWS V14.01,2013-08-23 09:30:00,
2013-08-23 05:31:00,68.7,68.1,29.98,ENE,70,0.0,0.0,98,0.00,,---,0.00,VWS V14.01,2013-08-23 09:31:00,
2013-08-23 05:36:00,68.7,68.1,29.98,ENE,70,0.0,0.0,98,0.00,,---,0.00,VWS V14.01,2013-08-23 09:36:00,
2013-08-23 05:40:00,68.6,68.0,29.98,ENE,70,0.0,0.0,98,0.00,,---,0.00,VWS V14.01,2013-08-23 09:40:00,
2013-08-23 05:41:00,68.6,68.0,29.98,ENE,69,0.0,0.0,98,0.00,,---,0.00,VWS V14.01,2013-08-23 09:41:00,
2013-08-23 05:46:00,68.6,68.0,29.98,ENE,70,0.0,0.0,98,0.00,,---,0.00,VWS V14.01,2013-08-23 09:46:00,
2013-08-23 05:50:00,68.6,68.0,29.98,ENE,70,0.0,0.0,98,0.00,,---,0.00,VWS V14.01,2013-08-23 09:50:00,
2013-08-23 05:51:00,68.6,68.0,29.99,ENE,69,0.0,0.0,98,0.00,,---,0.00,VWS V14.01,2013-08-23 09:51:00,
2013-08-23 05:56:00,68.5,67.9,29.99,ENE,70,0.0,0.0,98,0.00,,---,0.00,VWS V14.01,2013-08-23 09:56:00,
2013-08-23 06:00:00,68.5,67.9,29.99,ENE,70,0.0,0.0,98,0.00,,---,0.00,VWS V14.01,2013-08-23 10:00:00,
2013-08-23 06:01:00,68.5,67.9,29.99,ENE,70,0.0,0.0,98,0.00,,---,0.00,VWS V14.01,2013-08-23 10:01:00,
2013-08-23 06:06:00,68.5,67.9,29.99,ENE,70,0.0,0.0,98,0.00,,---,0.00,VWS V14.01,2013-08-23 10:06:00,
2013-08-23 06:10:00,68.5,67.9,29.99,ENE,70,0.0,0.0,98,0.00,,---,0.00,VWS V14.01,2013-08-23 10:10:00,
2013-08-23 06:11:00,68.5,67.9,29.99,ENE,69,0.0,0.0,98,0.00,,---,0.00,VWS V14.01,2013-08-23 10:11:00,
2013-08-23 06:16:00,68.4,67.8,29.99,ENE,69,0.0,0.0,98,0.00,,---,0.00,VWS V14.01,2013-08-23 10:16:00,
2013-08-23 06:20:00,68.4,67.8,29.99,ENE,69,0.0,0.0,98,0.00,,---,0.00,VWS V14.01,2013-08-23 10:20:00,
2013-08-23 06:21:00,68.4,67.8,29.99,ENE,69,0.0,0.0,98,0.00,,---,0.00,VWS V14.01,2013-08-23 10:21:00,
2013-08-23 06:26:00,68.4,67.8,29.99,ENE,70,0.0,0.0,98,0.00,,---,0.00,VWS V14.01,2013-08-23 10:26:00,
2013-08-23 06:30:00,68.3,67.7,29.99,ENE,70,0.0,0.0,98,0.00,,---,0.00,VWS V14.01,2013-08-23 10:30:00,
2013-08-23 06:31:00,68.3,67.7,29.99,ENE,69,0.0,0.0,98,0.00,,---,0.00,VWS V14.01,2013-08-23 10:31:00,
2013-08-23 06:36:00,68.2,67.6,29.99,ENE,69,0.0,0.0,98,0.00,,---,0.00,VWS V14.01,2013-08-23 10:36:00,
2013-08-23 06:40:00,68.2,67.6,29.99,ENE,70,0.0,0.0,98,0.00,,---,0.00,VWS V14.01,2013-08-23 10:40:00,
2013-08-23 06:41:00,68.2,67.6,29.99,ENE,70,0.0,0.0,98,0.00,,---,0.00,VWS V14.01,2013-08-23 10:41:00,
2013-08-23 06:46:00,68.1,67.5,29.99,ENE,70,0.0,0.0,98,0.00,,---,0.00,VWS V14.01,2013-08-23 10:46:00,
2013-08-23 06:50:00,68.1,67.5,29.99,ENE,69,0.0,0.0,98,0.00,,---,0.00,VWS V14.01,2013-08-23 10:50:00,
2013-08-23 06:51:00,68.1,67.5,29.99,ENE,70,0.0,0.0,98,0.00,,---,0.00,VWS V14.01,2013-08-23 10:51:00,
2013-08-23 06:56:00,68.1,67.5,30.00,ENE,70,0.0,0.0,98,0.00,,---,0.00,VWS V14.01,2013-08-23 10:56:00,
2013-08-23 07:00:00,68.0,67.4,30.00,ENE,70,0.0,0.0,98,0.00,,---,0.00,VWS V14.01,2013-08-23 11:00:00,
2013-08-23 07:01:00,68.0,67.4,30.00,ENE,70,0.0,0.0,98,0.00,,---,0.00,VWS V14.01,2013-08-23 11:01:00,
2013-08-23 07:05:00,68.0,67.4,30.00,ENE,70,0.0,0.0,98,0.00,,---,0.00,VWS V14.01,2013-08-23 11:05:00,
2013-08-23 07:10:00,68.0,67.4,30.00,ENE,70,0.0,0.0,98,0.00,,---,0.00,VWS V14.01,2013-08-23 11:10:00,
2013-08-23 07:15:00,68.0,67.4,30.01,ENE,69,0.0,0.0,98,0.00,,---,0.00,VWS V14.01,2013-08-23 11:15:00,
2013-08-23 07:20:00,68.0,67.4,30.02,ENE,70,0.0,0.0,98,0.00,,---,0.00,VWS V14.01,2013-08-23 11:20:00,
2013-08-23 07:25:00,67.9,67.3,30.02,ENE,69,0.0,0.0,98,0.00,,---,0.00,VWS V14.01,2013-08-23 11:25:00,
2013-08-23 07:30:00,67.9,67.3,30.02,ENE,70,0.0,0.0,98,0.00,,---,0.00,VWS V14.01,2013-08-23 11:30:00,
2013-08-23 07:35:00,67.9,67.3,30.02,ENE,70,0.0,0.0,98,0.00,,---,0.00,VWS V14.01,2013-08-23 11:35:00,
2013-08-23 07:40:00,67.9,67.3,30.02,ENE,70,0.0,0.0,98,0.00,,---,0.00,VWS V14.01,2013-08-23 11:40:00,
2013-08-23 07:45:00,67.9,67.3,30.02,ENE,70,0.0,0.0,98,0.00,,---,0.00,VWS V14.01,2013-08-23 11:45:00,
2013-08-23 07:50:00,67.9,67.3,30.02,ENE,70,0.0,0.0,98,0.00,,---,0.00,VWS V14.01,2013-08-23 11:50:00,
2013-08-23 07:55:00,68.0,67.4,30.02,ENE,70,0.0,0.0,98,0.00,,---,0.00,VWS V14.01,2013-08-23 11:55:00,
2013-08-23 08:00:00,68.0,67.4,30.02,ENE,70,0.0,0.0,98,0.00,,---,0.00,VWS V14.01,2013-08-23 12:00:00,
2013-08-23 08:05:00,68.1,67.5,30.03,ENE,70,0.0,0.0,98,0.00,,---,0.00,VWS V14.01,2013-08-23 12:05:00,
2013-08-23 08:10:00,68.2,67.6,30.02,ENE,70,0.0,0.0,98,0.00,,---,0.00,VWS V14.01,2013-08-23 12:10:00,
2013-08-23 08:15:00,68.4,67.8,30.02,ENE,70,0.0,0.0,98,0.00,,---,0.00,VWS V14.01,2013-08-23 12:15:00,
2013-08-23 08:20:00,68.5,68.2,30.03,ENE,69,0.0,0.0,99,0.00,,---,0.00,VWS V14.01,2013-08-23 12:20:00,
2013-08-23 08:25:00,68.7,68.4,30.02,ENE,70,0.0,0.0,99,0.00,,---,0.00,VWS V14.01,2013-08-23 12:25:00,
2013-08-23 08:30:00,68.9,68.6,30.03,ENE,70,0.0,0.0,99,0.00,,---,0.00,VWS V14.01,2013-08-23 12:30:00,
2013-08-23 08:35:00,69.1,68.8,30.03,ENE,70,0.0,0.0,99,0.00,,---,0.00,VWS V14.01,2013-08-23 12:35:00,
2013-08-23 08:40:00,69.4,69.1,30.03,ENE,70,0.0,0.0,99,0.00,,---,0.00,VWS V14.01,2013-08-23 12:40:00,
2013-08-23 08:45:00,69.7,69.4,30.03,ENE,70,0.0,0.0,99,0.00,,---,0.00,VWS V14.01,2013-08-23 12:45:00,
2013-08-23 08:50:00,70.0,69.7,30.03,ENE,70,0.0,0.0,99,0.00,,---,0.00,VWS V14.01,2013-08-23 12:50:00,
2013-08-23 08:55:00,70.3,70.0,30.03,ENE,70,0.0,0.0,99,0.00,,---,0.00,VWS V14.01,2013-08-23 12:55:00,
2013-08-23 09:00:00,70.7,70.4,30.03,ENE,70,0.0,0.0,99,0.00,,---,0.00,VWS V14.01,2013-08-23 13:00:00,
2013-08-23 09:05:00,70.9,70.6,30.03,ENE,70,0.0,0.0,99,0.00,,---,0.00,VWS V14.01,2013-08-23 13:05:00,
2013-08-23 09:10:00,71.2,70.9,30.03,ENE,70,0.0,0.0,99,0.00,,---,0.00,VWS V14.01,2013-08-23 13:10:00,
2013-08-23 09:15:00,71.3,71.0,30.03,ENE,69,0.0,0.0,99,0.00,,---,0.00,VWS V14.01,2013-08-23 13:15:00,
2013-08-23 09:20:00,71.5,71.2,30.03,ENE,70,0.0,0.0,99,0.00,,---,0.00,VWS V14.01,2013-08-23 13:20:00,
2013-08-23 09:25:00,71.7,71.4,30.03,ENE,70,0.0,0.0,99,0.00,,---,0.00,VWS V14.01,2013-08-23 13:25:00,
2013-08-23 09:30:00,71.9,71.6,30.03,ENE,70,0.0,0.0,99,0.00,,---,0.00,VWS V14.01,2013-08-23 13:30:00,
2013-08-23 09:35:00,72.1,71.8,30.03,ENE,70,0.0,0.0,99,0.00,,---,0.00,VWS V14.01,2013-08-23 13:35:00,
2013-08-23 09:40:00,72.3,72.0,30.03,ENE,69,0.0,0.0,99,0.00,,---,0.00,VWS V14.01,2013-08-23 13:40:00,
2013-08-23 09:45:00,72.5,72.2,30.03,ENE,70,0.0,0.0,99,0.00,,---,0.00,VWS V14.01,2013-08-23 13:45:00,
2013-08-23 09:50:00,72.8,72.5,30.04,ENE,70,0.0,0.0,99,0.00,,---,0.00,VWS V14.01,2013-08-23 13:50:00,
2013-08-23 09:55:00,73.1,72.8,30.04,ENE,70,0.0,0.0,99,0.00,,---,0.00,VWS V14.01,2013-08-23 13:55:00,
2013-08-23 10:00:00,73.3,73.0,30.04,ENE,69,0.0,0.0,99,0.00,,---,0.00,VWS V14.01,2013-08-23 14:00:00,
2013-08-23 10:05:00,73.4,73.1,30.04,ENE,70,0.0,0.0,99,0.00,,---,0.00,VWS V14.01,2013-08-23 14:05:00,
2013-08-23 10:10:00,73.6,73.0,30.04,ENE,70,0.0,0.0,98,0.00,,---,0.00,VWS V14.01,2013-08-23 14:10:00,
2013-08-23 10:15:00,73.8,73.2,30.04,ENE,70,0.0,0.0,98,0.00,,---,0.00,VWS V14.01,2013-08-23 14:15:00,
2013-08-23 10:20:00,73.8,73.2,30.04,ENE,69,0.0,0.0,98,0.00,,---,0.00,VWS V14.01,2013-08-23 14:20:00,
2013-08-23 10:25:00,73.9,73.3,30.04,ENE,70,0.0,0.0,98,0.00,,---,0.00,VWS V14.01,2013-08-23 14:25:00,
2013-08-23 10:30:00,73.9,73.0,30.04,ENE,70,0.0,0.0,97,0.00,,---,0.00,VWS V14.01,2013-08-23 14:30:00,
2013-08-23 10:35:00,74.0,73.1,30.04,ENE,69,0.0,0.0,97,0.00,,---,0.00,VWS V14.01,2013-08-23 14:35:00,
2013-08-23 10:40:00,74.4,73.5,30.04,ENE,70,0.0,0.0,97,0.00,,---,0.00,VWS V14.01,2013-08-23 14:40:00,
2013-08-23 10:45:00,74.6,73.4,30.04,ENE,70,0.0,1.0,96,0.00,,---,0.00,VWS V14.01,2013-08-23 14:45:00,
2013-08-23 10:50:00,74.8,73.3,30.05,East,99,0.0,0.0,95,0.00,,---,0.00,VWS V14.01,2013-08-23 14:50:00,
2013-08-23 10:55:00,75.4,73.9,30.04,East,99,0.0,0.0,95,0.00,,---,0.00,VWS V14.01,2013-08-23 14:55:00,
2013-08-23 11:00:00,75.8,73.6,30.04,South,177,0.0,0.0,93,0.00,,---,0.00,VWS V14.01,2013-08-23 15:00:00,
2013-08-23 11:05:00,76.2,74.0,30.04,South,178,0.0,0.0,93,0.00,,---,0.00,VWS V14.01,2013-08-23 15:05:00,
2013-08-23 11:10:00,76.6,74.1,30.04,South,179,0.0,0.0,92,0.00,,---,0.00,VWS V14.01,2013-08-23 15:10:00,
2013-08-23 11:15:00,76.8,74.3,30.04,South,177,0.0,0.0,92,0.00,,---,0.00,VWS V14.01,2013-08-23 15:15:00,
2013-08-23 11:20:00,77.2,74.4,30.03,West,262,0.0,0.0,91,0.00,,---,0.00,VWS V14.01,2013-08-23 15:20:00,
2013-08-23 11:25:00,77.5,74.0,30.03,West,261,0.0,0.0,89,0.00,,---,0.00,VWS V14.01,2013-08-23 15:25:00,
2013-08-23 11:30:00,77.9,74.7,30.03,West,262,0.0,0.0,90,0.00,,---,0.00,VWS V14.01,2013-08-23 15:30:00,
2013-08-23 11:35:00,78.1,74.3,30.03,WSW,250,0.0,0.0,88,0.00,,---,0.00,VWS V14.01,2013-08-23 15:35:00,
2013-08-23 11:40:00,78.4,74.9,30.03,WSW,252,0.0,0.0,89,0.00,,---,0.00,VWS V14.01,2013-08-23 15:40:00,
2013-08-23 11:45:00,78.6,74.4,30.03,WSW,250,0.0,1.0,87,0.00,,---,0.00,VWS V14.01,2013-08-23 15:45:00,
2013-08-23 11:50:00,78.8,74.3,30.03,WSW,252,0.0,0.0,86,0.00,,---,0.00,VWS V14.01,2013-08-23 15:50:00,
2013-08-23 11:55:00,79.2,75.0,30.03,WSW,249,0.0,0.0,87,0.00,,---,0.00,VWS V14.01,2013-08-23 15:55:00,
2013-08-23 12:00:00,79.6,75.1,30.03,WSW,249,0.0,0.0,86,0.00,,---,0.00,VWS V14.01,2013-08-23 16:00:00,
2013-08-23 12:05:00,79.9,74.6,30.03,WSW,249,0.0,0.0,84,0.00,,---,0.00,VWS V14.01,2013-08-23 16:05:00,
2013-08-23 12:10:00,80.2,74.9,30.03,WSW,249,0.0,0.0,84,0.00,,---,0.00,VWS V14.01,2013-08-23 16:10:00,
2013-08-23 12:15:00,80.5,74.1,30.03,WSW,249,0.0,0.0,81,0.00,,---,0.00,VWS V14.01,2013-08-23 16:15:00,
2013-08-23 12:20:00,81.0,74.2,30.03,WSW,249,0.0,0.0,80,0.00,,---,0.00,VWS V14.01,2013-08-23 16:20:00,
2013-08-23 12:25:00,81.6,75.2,30.02,WSW,249,0.0,0.0,81,0.00,,---,0.00,VWS V14.01,2013-08-23 16:25:00,
2013-08-23 12:30:00,82.6,75.8,30.02,WSW,248,0.0,0.0,80,0.00,,---,0.00,VWS V14.01,2013-08-23 16:30:00,
2013-08-23 12:35:00,83.4,75.8,30.02,WSW,249,0.0,0.0,78,0.00,,---,0.00,VWS V14.01,2013-08-23 16:35:00,
2013-08-23 12:40:00,84.0,75.2,30.02,WSW,248,0.0,0.0,75,0.00,,---,0.00,VWS V14.01,2013-08-23 16:40:00,
2013-08-23 12:45:00,84.5,75.7,30.01,WSW,249,0.0,0.0,75,0.00,,---,0.00,VWS V14.01,2013-08-23 16:45:00,
2013-08-23 12:50:00,85.2,76.0,30.01,WSW,249,0.0,0.0,74,0.00,,---,0.00,VWS V14.01,2013-08-23 16:50:00,
2013-08-23 12:55:00,85.4,76.2,30.01,WSW,249,0.0,0.0,74,0.00,,---,0.00,VWS V14.01,2013-08-23 16:55:00,
2013-08-23 13:00:00,85.4,74.9,30.01,WSW,250,0.0,0.0,71,0.00,,---,0.00,VWS V14.01,2013-08-23 17:00:00,
2013-08-23 13:05:00,86.0,75.1,30.01,WSW,257,0.0,1.0,70,0.00,,---,0.00,VWS V14.01,2013-08-23 17:05:00,
2013-08-23 13:10:00,86.2,74.8,30.00,WSW,257,0.0,0.0,69,0.00,,---,0.00,VWS V14.01,2013-08-23 17:10:00,
2013-08-23 13:15:00,86.4,74.2,30.01,WSW,256,0.0,0.0,67,0.00,,---,0.00,VWS V14.01,2013-08-23 17:15:00,
2013-08-23 13:20:00,86.9,75.1,30.00,WSW,256,0.0,0.0,68,0.00,,---,0.00,VWS V14.01,2013-08-23 17:20:00,
2013-08-23 13:25:00,87.0,75.2,30.00,WSW,257,0.0,0.0,68,0.00,,---,0.00,VWS V14.01,2013-08-23 17:25:00,
2013-08-23 13:30:00,86.7,74.9,30.00,WSW,257,0.0,0.0,68,0.00,,---,0.00,VWS V14.01,2013-08-23 17:30:00,
2013-08-23 13:35:00,87.1,75.7,30.00,West,260,0.0,1.0,69,0.00,,---,0.00,VWS V14.01,2013-08-23 17:35:00,
2013-08-23 13:40:00,87.5,74.8,30.00,West,260,0.0,0.0,66,0.00,,---,0.00,VWS V14.01,2013-08-23 17:40:00,
2013-08-23 13:45:00,87.7,74.9,29.99,West,259,0.0,0.0,66,0.00,,---,0.00,VWS V14.01,2013-08-23 17:45:00,
2013-08-23 13:50:00,87.7,74.5,29.99,West,260,0.0,0.0,65,0.00,,---,0.00,VWS V14.01,2013-08-23 17:50:00,
2013-08-23 13:55:00,88.1,74.4,29.99,WSW,255,0.0,1.0,64,0.00,,---,0.00,VWS V14.01,2013-08-23 17:55:00,
2013-08-23 14:00:00,88.3,76.4,29.99,WSW,257,0.0,0.0,68,0.00,,---,0.00,VWS V14.01,2013-08-23 18:00:00,
2013-08-23 14:05:00,88.1,73.9,29.99,West,262,0.0,1.0,63,0.00,,---,0.00,VWS V14.01,2013-08-23 18:05:00,
2013-08-23 14:10:00,88.2,75.0,29.99,West,261,0.0,0.0,65,0.00,,---,0.00,VWS V14.01,2013-08-23 18:10:00,
2013-08-23 14:15:00,88.4,74.7,29.98,West,262,0.0,0.0,64,0.00,,---,0.00,VWS V14.01,2013-08-23 18:15:00,
2013-08-23 14:20:00,88.2,74.5,29.98,West,262,0.0,0.0,64,0.00,,---,0.00,VWS V14.01,2013-08-23 18:20:00,
2013-08-23 14:25:00,87.7,74.9,29.98,West,262,0.0,0.0,66,0.00,,---,0.00,VWS V14.01,2013-08-23 18:25:00,
2013-08-23 14:30:00,86.9,74.2,29.98,West,263,0.0,0.0,66,0.00,,---,0.00,VWS V14.01,2013-08-23 18:30:00,
2013-08-23 14:35:00,86.3,74.9,29.98,West,263,0.0,0.0,69,0.00,,---,0.00,VWS V14.01,2013-08-23 18:35:00,
2013-08-23 14:40:00,86.1,74.3,29.98,West,262,0.0,0.0,68,0.00,,---,0.00,VWS V14.01,2013-08-23 18:40:00,
2013-08-23 14:45:00,86.1,76.0,29.97,West,262,0.0,0.0,72,0.00,,---,0.00,VWS V14.01,2013-08-23 18:45:00,
2013-08-23 14:50:00,85.8,75.7,29.97,West,262,0.0,0.0,72,0.00,,---,0.00,VWS V14.01,2013-08-23 18:50:00,
2013-08-23 14:55:00,85.9,74.6,29.97,West,266,0.0,0.0,69,0.00,,---,0.00,VWS V14.01,2013-08-23 18:55:00,
2013-08-23 15:00:00,86.1,74.3,29.97,West,265,0.0,0.0,68,0.00,,---,0.00,VWS V14.01,2013-08-23 19:00:00,
2013-08-23 15:05:00,86.2,74.4,29.96,West,264,0.0,0.0,68,0.00,,---,0.00,VWS V14.01,2013-08-23 19:05:00,
2013-08-23 15:10:00,86.2,74.8,29.96,West,264,0.0,0.0,69,0.00,,---,0.00,VWS V14.01,2013-08-23 19:10:00,
2013-08-23 15:15:00,86.8,74.1,29.96,West,264,0.0,0.0,66,0.00,,---,0.00,VWS V14.01,2013-08-23 19:15:00,
2013-08-23 15:20:00,87.2,74.0,29.95,West,264,0.0,0.0,65,0.00,,---,0.00,VWS V14.01,2013-08-23 19:20:00,
2013-08-23 15:25:00,87.7,74.5,29.95,West,264,0.0,0.0,65,0.00,,---,0.00,VWS V14.01,2013-08-23 19:25:00,
2013-08-23 15:30:00,88.0,72.9,29.95,West,264,0.0,0.0,61,0.00,,---,0.00,VWS V14.01,2013-08-23 19:30:00,
2013-08-23 15:35:00,88.2,73.6,29.94,West,265,0.0,1.0,62,0.00,,---,0.00,VWS V14.01,2013-08-23 19:35:00,
2013-08-23 15:40:00,88.3,74.6,29.94,West,265,0.0,0.0,64,0.00,,---,0.00,VWS V14.01,2013-08-23 19:40:00,
2013-08-23 15:45:00,88.1,74.9,29.94,West,265,0.0,1.0,65,0.00,,---,0.00,VWS V14.01,2013-08-23 19:45:00,
2013-08-23 15:50:00,88.1,73.4,29.94,West,265,0.0,0.0,62,0.00,,---,0.00,VWS V14.01,2013-08-23 19:50:00,
2013-08-23 15:55:00,88.1,74.4,29.94,West,269,0.0,0.0,64,0.00,,---,0.00,VWS V14.01,2013-08-23 19:55:00,
2013-08-23 16:00:00,87.7,72.6,29.94,West,269,0.0,0.0,61,0.00,,---,0.00,VWS V14.01,2013-08-23 20:00:00,
2013-08-23 16:05:00,87.5,73.4,29.94,West,269,0.0,0.0,63,0.00,,---,0.00,VWS V14.01,2013-08-23 20:05:00,
2013-08-23 16:10:00,87.3,74.1,29.94,West,269,0.0,0.0,65,0.00,,---,0.00,VWS V14.01,2013-08-23 20:10:00,
2013-08-23 16:15:00,87.3,74.6,29.93,West,270,0.0,0.0,66,0.00,,---,0.00,VWS V14.01,2013-08-23 20:15:00,
2013-08-23 16:20:00,87.1,73.9,29.94,West,270,0.0,0.0,65,0.00,,---,0.00,VWS V14.01,2013-08-23 20:20:00,
2013-08-23 16:25:00,86.5,74.2,29.93,West,270,0.0,0.0,67,0.00,,---,0.00,VWS V14.01,2013-08-23 20:25:00,
2013-08-23 16:30:00,85.9,75.0,29.93,West,270,0.0,0.0,70,0.00,,---,0.00,VWS V14.01,2013-08-23 20:30:00,
2013-08-23 16:35:00,85.3,74.8,29.93,West,270,0.0,0.0,71,0.00,,---,0.00,VWS V14.01,2013-08-23 20:35:00,
2013-08-23 16:40:00,85.1,74.6,29.93,West,270,0.0,0.0,71,0.00,,---,0.00,VWS V14.01,2013-08-23 20:40:00,
2013-08-23 16:45:00,84.9,72.7,29.92,West,270,0.0,0.0,67,0.00,,---,0.00,VWS V14.01,2013-08-23 20:45:00,
2013-08-23 16:50:00,85.0,74.6,29.93,West,270,0.0,0.0,71,0.00,,---,0.00,VWS V14.01,2013-08-23 20:50:00,
2013-08-23 16:55:00,85.3,74.8,29.92,West,270,0.0,0.0,71,0.00,,---,0.00,VWS V14.01,2013-08-23 20:55:00,
2013-08-23 17:00:00,85.5,74.6,29.92,West,270,0.0,0.0,70,0.00,,---,0.00,VWS V14.01,2013-08-23 21:00:00,
2013-08-23 17:05:00,85.6,74.3,29.92,West,270,0.0,0.0,69,0.00,,---,0.00,VWS V14.01,2013-08-23 21:05:00,
2013-08-23 17:10:00,85.9,74.6,29.92,West,281,0.0,0.0,69,0.00,,---,0.00,VWS V14.01,2013-08-23 21:10:00,
2013-08-23 17:15:00,85.9,74.6,29.92,West,281,0.0,0.0,69,0.00,,---,0.00,VWS V14.01,2013-08-23 21:15:00,
2013-08-23 17:20:00,85.6,74.3,29.92,West,281,0.0,0.0,69,0.00,,---,0.00,VWS V14.01,2013-08-23 21:20:00,
2013-08-23 17:25:00,85.2,75.2,29.92,West,281,0.0,0.0,72,0.00,,---,0.00,VWS V14.01,2013-08-23 21:25:00,
2013-08-23 17:30:00,85.1,74.6,29.92,West,281,0.0,0.0,71,0.00,,---,0.00,VWS V14.01,2013-08-23 21:30:00,
2013-08-23 17:35:00,85.2,75.6,29.93,West,281,0.0,0.0,73,0.00,,---,0.00,VWS V14.01,2013-08-23 21:35:00,
2013-08-23 17:40:00,85.4,74.9,29.93,West,281,0.0,1.0,71,0.00,,---,0.00,VWS V14.01,2013-08-23 21:40:00,
2013-08-23 17:45:00,85.5,74.6,29.93,West,281,0.0,1.0,70,0.00,,---,0.00,VWS V14.01,2013-08-23 21:45:00,
2013-08-23 17:50:00,85.2,74.7,29.93,West,281,0.0,0.0,71,0.00,,---,0.00,VWS V14.01,2013-08-23 21:50:00,
2013-08-23 17:55:00,84.9,75.3,29.93,West,281,0.0,0.0,73,0.00,,---,0.00,VWS V14.01,2013-08-23 21:55:00,
2013-08-23 18:00:00,84.4,75.2,29.93,West,281,0.0,0.0,74,0.00,,---,0.00,VWS V14.01,2013-08-23 22:00:00,
2013-08-23 18:05:00,84.0,75.2,29.94,West,281,0.0,0.0,75,0.00,,---,0.00,VWS V14.01,2013-08-23 22:05:00,
2013-08-23 18:10:00,83.9,75.1,29.94,West,281,0.0,0.0,75,0.00,,---,0.00,VWS V14.01,2013-08-23 22:10:00,
2013-08-23 18:15:00,83.8,75.4,29.94,West,281,0.0,0.0,76,0.00,,---,0.00,VWS V14.01,2013-08-23 22:15:00,
2013-08-23 18:20:00,83.7,74.9,29.94,West,281,0.0,0.0,75,0.00,,---,0.00,VWS V14.01,2013-08-23 22:20:00,
2013-08-23 18:25:00,83.6,75.2,29.94,West,281,0.0,0.0,76,0.00,,---,0.00,VWS V14.01,2013-08-23 22:25:00,
2013-08-23 18:30:00,83.7,75.3,29.94,West,281,0.0,0.0,76,0.00,,---,0.00,VWS V14.01,2013-08-23 22:30:00,
2013-08-23 18:35:00,83.6,75.2,29.94,West,281,0.0,0.0,76,0.00,,---,0.00,VWS V14.01,2013-08-23 22:35:00,
2013-08-23 18:40:00,83.4,75.1,29.94,West,281,0.0,0.0,76,0.00,,---,0.00,VWS V14.01,2013-08-23 22:40:00,
2013-08-23 18:45:00,83.2,74.8,29.95,West,281,0.0,0.0,76,0.00,,---,0.00,VWS V14.01,2013-08-23 22:45:00,
2013-08-23 18:50:00,83.0,75.4,29.95,West,281,0.0,0.0,78,0.00,,---,0.00,VWS V14.01,2013-08-23 22:50:00,
2013-08-23 18:55:00,83.0,75.1,29.95,West,281,0.0,0.0,77,0.00,,---,0.00,VWS V14.01,2013-08-23 22:55:00,
2013-08-23 19:00:00,82.8,74.9,29.95,West,281,0.0,0.0,77,0.00,,---,0.00,VWS V14.01,2013-08-23 23:00:00,
2013-08-23 19:05:00,82.4,74.9,29.94,West,281,0.0,0.0,78,0.00,,---,0.00,VWS V14.01,2013-08-23 23:05:00,
2013-08-23 19:10:00,82.1,74.6,29.94,West,281,0.0,0.0,78,0.00,,---,0.00,VWS V14.01,2013-08-23 23:10:00,
2013-08-23 19:15:00,81.9,74.4,29.94,West,281,0.0,0.0,78,0.00,,---,0.00,VWS V14.01,2013-08-23 23:15:00,
2013-08-23 19:20:00,82.2,74.7,29.94,West,281,0.0,0.0,78,0.00,,---,0.00,VWS V14.01,2013-08-23 23:20:00,
2013-08-23 19:25:00,82.4,74.5,29.94,West,281,0.0,0.0,77,0.00,,---,0.00,VWS V14.01,2013-08-23 23:25:00,
2013-08-23 19:30:00,82.1,74.2,29.94,West,281,0.0,0.0,77,0.00,,---,0.00,VWS V14.01,2013-08-23 23:30:00,
2013-08-23 19:35:00,81.7,74.2,29.94,West,281,0.0,0.0,78,0.00,,---,0.00,VWS V14.01,2013-08-23 23:35:00,
2013-08-23 19:40:00,81.3,74.2,29.93,West,281,0.0,0.0,79,0.00,,---,0.00,VWS V14.01,2013-08-23 23:40:00,
2013-08-23 19:45:00,81.3,74.5,29.93,West,281,0.0,0.0,80,0.00,,---,0.00,VWS V14.01,2013-08-23 23:45:00,
2013-08-23 19:50:00,81.5,74.4,29.93,West,281,0.0,0.0,79,0.00,,---,0.00,VWS V14.01,2013-08-23 23:50:00,
2013-08-23 19:55:00,81.1,74.0,29.93,West,281,0.0,0.0,79,0.00,,---,0.00,VWS V14.01,2013-08-23 23:55:00,
2013-08-23 20:00:00,80.6,73.9,29.94,West,281,0.0,0.0,80,0.00,,---,0.00,VWS V14.01,2013-08-24 00:00:00,
2013-08-23 20:05:00,80.2,73.8,29.94,West,281,0.0,0.0,81,0.00,,---,0.00,VWS V14.01,2013-08-24 00:05:00,
2013-08-23 20:10:00,80.0,74.0,29.94,West,281,0.0,0.0,82,0.00,,---,0.00,VWS V14.01,2013-08-24 00:10:00,
2013-08-23 20:15:00,80.4,74.0,29.95,West,281,0.0,0.0,81,0.00,,---,0.00,VWS V14.01,2013-08-24 00:15:00,
2013-08-23 20:20:00,80.2,73.8,29.95,West,281,0.0,0.0,81,0.00,,---,0.00,VWS V14.01,2013-08-24 00:20:00,
2013-08-23 20:25:00,79.7,74.1,29.95,West,281,0.0,0.0,83,0.00,,---,0.00,VWS V14.01,2013-08-24 00:25:00,
2013-08-23 20:30:00,79.2,73.6,29.96,West,281,0.0,0.0,83,0.00,,---,0.00,VWS V14.01,2013-08-24 00:30:00,
2013-08-23 20:35:00,78.8,73.6,29.96,West,281,0.0,0.0,84,0.00,,---,0.00,VWS V14.01,2013-08-24 00:35:00,
2013-08-23 20:40:00,78.5,73.6,29.96,West,281,0.0,0.0,85,0.00,,---,0.00,VWS V14.01,2013-08-24 00:40:00,
2013-08-23 20:45:00,78.3,73.8,29.96,West,281,0.0,0.0,86,0.00,,---,0.00,VWS V14.01,2013-08-24 00:45:00,
2013-08-23 20:50:00,78.6,74.1,29.96,West,281,0.0,0.0,86,0.00,,---,0.00,VWS V14.01,2013-08-24 00:50:00,
2013-08-23 20:55:00,78.5,74.0,29.96,West,281,0.0,0.0,86,0.00,,---,0.00,VWS V14.01,2013-08-24 00:55:00,
2013-08-23 21:00:00,78.2,74.0,29.97,West,281,0.0,0.0,87,0.00,,---,0.00,VWS V14.01,2013-08-24 01:00:00,
2013-08-23 21:05:00,78.3,73.8,29.97,West,281,0.0,0.0,86,0.00,,---,0.00,VWS V14.01,2013-08-24 01:05:00,
2013-08-23 21:10:00,78.5,74.0,29.97,West,281,0.0,0.0,86,0.00,,---,0.00,VWS V14.01,2013-08-24 01:10:00,
2013-08-23 21:15:00,78.6,74.1,29.97,West,281,0.0,0.0,86,0.00,,---,0.00,VWS V14.01,2013-08-24 01:15:00,
2013-08-23 21:20:00,78.2,73.7,29.97,West,281,0.0,0.0,86,0.00,,---,0.00,VWS V14.01,2013-08-24 01:20:00,
2013-08-23 21:25:00,77.8,73.6,29.98,West,281,0.0,1.0,87,0.00,,---,0.00,VWS V14.01,2013-08-24 01:25:00,
2013-08-23 21:30:00,77.8,74.0,29.98,West,281,0.0,0.0,88,0.00,,---,0.00,VWS V14.01,2013-08-24 01:30:00,
2013-08-23 21:35:00,77.9,73.7,29.98,West,281,0.0,1.0,87,0.00,,---,0.00,VWS V14.01,2013-08-24 01:35:00,
2013-08-23 21:40:00,77.5,73.3,29.97,West,281,0.0,0.0,87,0.00,,---,0.00,VWS V14.01,2013-08-24 01:40:00,
2013-08-23 21:45:00,77.2,73.4,29.97,West,281,0.0,0.0,88,0.00,,---,0.00,VWS V14.01,2013-08-24 01:45:00,
2013-08-23 21:50:00,77.1,73.3,29.97,West,281,0.0,0.0,88,0.00,,---,0.00,VWS V14.01,2013-08-24 01:50:00,
2013-08-23 21:55:00,77.0,72.8,29.98,West,281,0.0,0.0,87,0.00,,---,0.00,VWS V14.01,2013-08-24 01:55:00,
2013-08-23 22:00:00,76.8,73.0,29.97,West,281,0.0,0.0,88,0.00,,---,0.00,VWS V14.01,2013-08-24 02:00:00,
2013-08-23 22:05:00,77.2,73.4,29.97,West,281,0.0,0.0,88,0.00,,---,0.00,VWS V14.01,2013-08-24 02:05:00,
2013-08-23 22:10:00,77.4,73.6,29.97,West,281,0.0,0.0,88,0.00,,---,0.00,VWS V14.01,2013-08-24 02:10:00,
2013-08-23 22:15:00,77.5,73.3,29.97,West,281,0.0,1.0,87,0.00,,---,0.00,VWS V14.01,2013-08-24 02:15:00,
2013-08-23 22:20:00,77.0,72.8,29.97,West,281,0.0,0.0,87,0.00,,---,0.00,VWS V14.01,2013-08-24 02:20:00,
2013-08-23 22:25:00,76.4,72.6,29.97,West,281,0.0,0.0,88,0.00,,---,0.00,VWS V14.01,2013-08-24 02:25:00,
2013-08-23 22:30:00,76.0,72.5,29.97,West,281,0.0,0.0,89,0.00,,---,0.00,VWS V14.01,2013-08-24 02:30:00,
2013-08-23 22:35:00,76.1,72.6,29.97,West,281,0.0,1.0,89,0.00,,---,0.00,VWS V14.01,2013-08-24 02:35:00,
2013-08-23 22:40:00,75.9,72.4,29.97,West,281,0.0,0.0,89,0.00,,---,0.00,VWS V14.01,2013-08-24 02:40:00,
2013-08-23 22:45:00,75.6,72.5,29.98,West,281,0.0,0.0,90,0.00,,---,0.00,VWS V14.01,2013-08-24 02:45:00,
2013-08-23 22:50:00,75.3,72.2,29.98,West,281,0.0,0.0,90,0.00,,---,0.00,VWS V14.01,2013-08-24 02:50:00,
2013-08-23 22:55:00,75.1,72.0,29.99,West,281,0.0,0.0,90,0.00,,---,0.00,VWS V14.01,2013-08-24 02:55:00,
2013-08-23 23:00:00,74.9,72.1,30.00,West,281,0.0,0.0,91,0.00,,---,0.00,VWS V14.01,2013-08-24 03:00:00,
2013-08-23 23:05:00,74.7,71.9,30.00,West,281,0.0,0.0,91,0.00,,---,0.00,VWS V14.01,2013-08-24 03:05:00,
2013-08-23 23:10:00,74.8,72.3,30.00,West,281,0.0,0.0,92,0.00,,---,0.00,VWS V14.01,2013-08-24 03:10:00,
2013-08-23 23:15:00,75.3,72.8,30.01,West,281,0.0,0.0,92,0.00,,---,0.00,VWS V14.01,2013-08-24 03:15:00,
2013-08-23 23:20:00,75.6,72.5,30.01,West,281,0.0,0.0,90,0.00,,---,0.00,VWS V14.01,2013-08-24 03:20:00,
2013-08-23 23:25:00,75.5,72.4,30.01,West,281,0.0,0.0,90,0.00,,---,0.00,VWS V14.01,2013-08-24 03:25:00,
2013-08-23 23:30:00,75.3,72.5,30.01,West,281,0.0,0.0,91,0.00,,---,0.00,VWS V14.01,2013-08-24 03:30:00,
2013-08-23 23:35:00,75.0,72.2,30.02,North,354,0.0,0.0,91,0.00,,---,0.00,VWS V14.01,2013-08-24 03:35:00,
2013-08-23 23:40:00,74.9,72.4,30.02,NE,34,0.0,0.0,92,0.00,,---,0.00,VWS V14.01,2013-08-24 03:40:00,
2013-08-23 23:45:00,74.9,72.1,30.02,North,9,0.0,0.0,91,0.00,,---,0.00,VWS V14.01,2013-08-24 03:45:00,
2013-08-23 23:50:00,74.8,72.0,30.03,North,6,0.0,0.0,91,0.00,,---,0.00,VWS V14.01,2013-08-24 03:50:00,
2013-08-23 23:55:00,75.1,72.3,30.02,NE,41,0.0,1.0,91,0.00,,---,0.00,VWS V14.01,2013-08-24 03:55:00,